Location: East Guldeford
(50.9500°N, 0.7500°E)
Time: 09:37:34
(UTC+00:00)

ARIANE 5 R/B - Pass Details

Date: 12 May 2021
Orbit: 620 x 656 km, 98.1° (Epoch: 13 June)

Event Time Altitude Azimuth Distance (km) Brightness Sun altitude
Exits shadow 21:15:27 15° 170° (S) 1,671 4.2 -12.5°
Maximum altitude 21:19:00 77° 256° (WSW) 642 2.7 -12.9°
Drops below altitude 10° 21:23:21 10° 343° (NNW) 2,002 6.4 -13.3°
Sets 21:25:34 0° 345° (NNW) 2,915 7.4 -13.5°
